Flag for U.S.A. Weather past 2 weeks in Lakeland, Florida, U.S.A.

Now
45 °F

Clear.


Feels Like: 42 °F
Forecast: 43 / 61 °F
Wind: 5 mph from Northwest

Location: Lakeland Regional

Current Time: Jan 28, 2015 at 4:27:44 AM

Latest Report: Jan 28, 2015 at 3:55 AM


Visibility: 10 mi

Pressure: 30.09 "Hg

Humidity: 93%

Dew point: 43 °F

Location of LakelandLocation

Historic Weather in Lakeland — Graph

°F

Lakeland temperature yesterday

Maximum temperature yesterday: 66 °F (at 1:50 PM)
Minimum temperature yesterday: 39 °F (at 7:50 AM)
Average temperature yesterday: 53 °F

Past Weeks' High & Low Weather Summary

 TemperatureHumidityPressure
High79 °F (Jan 22, 1:52 PM)100% (Jan 13, 3:15 AM)30.24 "Hg (Jan 13, 3:15 AM)
Low39 °F (Jan 27, 7:50 AM)27% (Jan 19, 2:50 PM)29.82 "Hg (Jan 24, 4:35 AM)
Average58 °F84%30.08 "Hg
* Reported Jan 13 3:15 AM — Jan 28 3:15 AM, Lakeland, Weather by CustomWeather, © 2014

Note: Actual official high and low records may vary slightly from our data, if they occured in-between our weather recording intervals... More about our weather records

Advertising

Lakeland weather history for previous 24 hours

 ConditionsComfort  
Time TempWeatherWind HumidityBarometerVisibility
3:15 AM
Jan 28
45 °FClear.3 mph93%30.10 "Hg10 mi
2:55 AM45 °FClear.No wind93%30.09 "Hg10 mi
2:15 AM45 °FClear.No wind100%30.09 "Hg10 mi
1:55 AM46 °FClear.No wind93%30.09 "Hg10 mi
1:15 AM50 °FClear.No wind82%30.09 "Hg10 mi
12:55 AM50 °FClear.5 mph88%30.09 "Hg10 mi
12:35 AM52 °FClear.6 mph82%30.08 "Hg10 mi
12:15 AM52 °FClear.7 mph82%30.08 "Hg10 mi
11:55 PM
Jan 27
52 °FClear.7 mph94%30.08 "Hg10 mi
11:35 PM52 °FClear.8 mph94%30.07 "Hg10 mi
11:15 PM52 °FClear.6 mph94%30.06 "Hg10 mi
10:55 PM54 °FClear.6 mph88%30.06 "Hg10 mi
10:15 PM54 °FClear.5 mph88%30.05 "Hg10 mi
9:55 PM54 °FClear.3 mph94%30.04 "Hg10 mi
9:35 PM55 °FClear.6 mph88%30.04 "Hg10 mi
9:15 PM55 °FClear.7 mph88%30.03 "Hg10 mi
8:50 PM57 °FClear.7 mph82%30.02 "Hg10 mi
7:50 PM57 °FClear.6 mph82%29.99 "Hg10 mi
6:50 PM61 °FClear.7 mph72%29.97 "Hg10 mi
5:50 PM63 °FSunny.8 mph64%29.96 "Hg15 mi
4:50 PM64 °FPassing clouds.15 mph56%29.96 "Hg15 mi
3:50 PM66 °FScattered clouds.14 mph52%29.96 "Hg15 mi
2:50 PM66 °FScattered clouds.21 mph49%29.96 "Hg15 mi
1:50 PM66 °FPassing clouds.21 mph46%29.98 "Hg15 mi
12:50 PM64 °FPassing clouds.16 mph49%30.01 "Hg15 mi
11:50 AM61 °FSunny.17 mph52%30.04 "Hg10 mi
10:50 AM57 °FSunny.10 mph55%30.07 "Hg10 mi
9:50 AM52 °FSunny.6 mph82%30.08 "Hg10 mi
8:50 AM46 °FSunny.3 mph76%30.07 "Hg10 mi
7:50 AM39 °FSunny.No wind100%30.06 "Hg10 mi
6:50 AM41 °FClear.No wind87%30.05 "Hg10 mi
5:50 AM43 °FClear.No wind81%30.02 "Hg10 mi
4:35 AM45 °FClear.5 mph76%30.01 "Hg10 mi
4:15 AM45 °FClear.6 mph81%30.01 "Hg10 mi
Weather by CustomWeather, © 2014

See weather overviewHow to use our weather pages